Location: Newark
(40.9833°N, 0.0333°W)
Time: 02:04:57
(UTC+00:00)

deb Explorer IX - Pass Details

Date: 29 October 2020
Orbit: 537 x 1105 km, 38.8° (Epoch: 02 December)

Event Time Altitude Azimuth Distance (km) Brightness Sun altitude
Rises 03:02:41 0° 191° (SSW) 3,126 - -38.9°
Reaches altitude 10° 03:06:23 10° 164° (SSE) 2,344 - -38.3°
Maximum altitude 03:08:48 13° 138° (SE) 2,231 - -37.8°
Exits shadow 03:09:04 13° 135° (SE) 2,244 ? -37.8°
Drops below altitude 10° 03:11:22 10° 112° (ESE) 2,527 ? -37.4°
Sets 03:15:40 0° 87° (E) 3,615 ? -36.6°
